Location: ???????
(55.4362°N, 38.1183°E)
Time: 00:08:48
(UTC+00:00)

Cosmos 1932 - Pass Details

Date: 29 October 2021
Orbit: 943 x 987 km, 65.0° (Epoch: 01 December)

Event Time Altitude Azimuth Distance (km) Brightness Sun altitude
Rises 15:56:28 0° 312° (NW) 3,620 8.3 -17.6°
Reaches altitude 10° 15:59:16 10° 303° (WNW) 2,675 7.7 -18.0°
Maximum altitude 16:04:37 31° 244° (WSW) 1,603 6.2 -18.8°
Drops below altitude 10° 16:10:00 10° 184° (S) 2,680 6.8 -19.5°
Sets 16:12:49 0° 175° (S) 3,629 7.4 -19.9°
